Вернуться в каталог

STARLINK-31316

АктивенСвязьVLEO
NORAD 59090·PAYLOAD·🇺🇸 United States

Запущен Feb 29, 2024 с Cape Canaveral Space Force Station

Loading…

Ближайшие Пролёты (ближайшие 24 часа)

TLE

СвежийSource: CelesTrak SupGP

Эпоха: Sep 14, 2026, 20:57 UTC

1 59090C 24041S   26257.87340278  .00008560  00000+0  31012-3 0  2570
2 59090  43.0009 275.4784 0002040 269.3572 183.9363 15.27565140    18

Отслеживайте STARLINK-31316 в реальном времени с AllMySat

Download on the App Store